Tracking 33744 objects as of 12-Apr-2026
HD Live streaming from Space Station
objects crossing your sky now

COSMOS 1275 DEB

Track COSMOS 1275 DEB now!
10-day predictions


NORAD ID: 13800
Int'l Code: 1981-053GX
Perigee: 897.4 km
Apogee: 1,136.4 km
Inclination: 83.2 °
Period: 105.3 minutes
Semi major axis: 7387 km
RCS: 0.062 m2 (small)
Launch date: June 4, 1981
Source: Commonwealth of Independent States (former USSR) (CIS)
Launch site: PLESETSK MISSILE AND SPACE COMPLEX (PKMTR)

Note: This is SATELLITE DEBRIS
Your satellite tracking list
Your tracking list is empty




NASA's NSSDC Master Catalog

Two Line Element Set (TLE):
1 13800U 81053GU  26102.28112292  .00000725  00000-0  77344-3 0  9999
2 13800  83.2235 210.6953 0161762 183.8737 205.8204 13.67166621145069
Source of the keplerian elements: AFSPC